Wetterdaten: Sonntag, 30.06.2013
Datum Zeit Temperatur Luftfeuchte Luftdruck Regen Wind Richtung Richtung Taupunkt Windchill Windben
30.06.2013 00:00 10,5 C 96 % 1024,1 hPa 0,7 l/m 3,2 km/h (1 Bft) S-SW 202 9,9 C 10,6 C 4,2 km/h (1 Bft)
30.06.2013 00:05 10,5 C 96 % 1024,0 hPa 0,0 l/m 3,9 km/h (1 Bft) W-SW 247 9,9 C 10,5 C 4,8 km/h (1 Bft)
30.06.2013 00:10 10,4 C 96 % 1024,0 hPa 0,0 l/m 5,0 km/h (1 Bft) S-SO 157 9,8 C 10,2 C 13,2 km/h (3 Bft)
30.06.2013 00:15 10,4 C 96 % 1024,0 hPa 0,0 l/m 5,6 km/h (1 Bft) S-SW 202 9,8 C 10,0 C 4,3 km/h (1 Bft)
30.06.2013 00:20 10,3 C 96 % 1024,0 hPa 0,7 l/m 5,1 km/h (1 Bft) S 180 9,7 C 10,0 C 2,7 km/h (1 Bft)
30.06.2013 00:25 10,3 C 96 % 1024,1 hPa 0,7 l/m 3,2 km/h (1 Bft) SW 225 9,7 C 10,3 C 2,1 km/h (1 Bft)
30.06.2013 00:30 10,3 C 96 % 1024,1 hPa 0,0 l/m 1,0 km/h (0 Bft) SO 135 9,7 C 10,3 C 1,8 km/h (1 Bft)
30.06.2013 00:35 10,2 C 96 % 1024,1 hPa 0,0 l/m 0,5 km/h (0 Bft) O-SO 112 9,6 C 10,3 C 0,0 km/h (0 Bft)
30.06.2013 00:40 10,2 C 96 % 1024,1 hPa 0,7 l/m 0,3 km/h (0 Bft) S 180 9,6 C 10,3 C 0,0 km/h (0 Bft)
30.06.2013 00:45 10,2 C 96 % 1024,1 hPa 0,0 l/m 0,3 km/h (0 Bft) S-SW 202 9,6 C 10,3 C 2,9 km/h (1 Bft)
30.06.2013 00:50 10,2 C 96 % 1024,1 hPa 0,0 l/m 1,0 km/h (0 Bft) SO 135 9,6 C 10,3 C 3,2 km/h (1 Bft)
30.06.2013 00:55 10,2 C 96 % 1024,1 hPa 0,0 l/m 1,1 km/h (1 Bft) O 90 9,6 C 10,2 C 2,9 km/h (1 Bft)
30.06.2013 01:00 10,2 C 96 % 1024,1 hPa 0,0 l/m 1,8 km/h (1 Bft) O 90 9,6 C 10,3 C 0,0 km/h (0 Bft)
30.06.2013 01:05 10,2 C 96 % 1024,1 hPa 0,0 l/m 1,4 km/h (1 Bft) S 180 9,6 C 10,3 C 0,0 km/h (0 Bft)
30.06.2013 01:10 10,2 C 96 % 1024,1 hPa 0,0 l/m 1,1 km/h (1 Bft) O 90 9,6 C 10,3 C 0,0 km/h (0 Bft)
30.06.2013 01:15 10,3 C 96 % 1024,1 hPa 0,0 l/m 0,8 km/h (0 Bft) SO 135 9,7 C 10,3 C 0,0 km/h (0 Bft)
30.06.2013 01:20 10,3 C 96 % 1024,1 hPa 0,0 l/m 0,2 km/h (0 Bft) O-SO 112 9,7 C 10,3 C 0,0 km/h (0 Bft)
30.06.2013 01:25 10,3 C 96 % 1024,2 hPa 0,0 l/m 0,3 km/h (0 Bft) S 180 9,7 C 10,3 C 0,0 km/h (0 Bft)
30.06.2013 01:30 10,3 C 96 % 1024,2 hPa 0,0 l/m 0,6 km/h (0 Bft) SO 135 9,7 C 10,3 C 0,0 km/h (0 Bft)
30.06.2013 01:35 10,3 C 96 % 1024,2 hPa 0,0 l/m 0,6 km/h (0 Bft) O-NO 67 9,7 C 10,3 C 2,1 km/h (1 Bft)
30.06.2013 01:40 10,3 C 96 % 1024,2 hPa 0,0 l/m 0,6 km/h (0 Bft) S-SO 157 9,7 C 10,3 C 1,6 km/h (1 Bft)
30.06.2013 01:45 10,3 C 96 % 1024,2 hPa 0,0 l/m 1,0 km/h (0 Bft) O 90 9,7 C 10,3 C 3,1 km/h (1 Bft)
30.06.2013 01:50 10,2 C 96 % 1024,2 hPa 0,0 l/m 1,8 km/h (1 Bft) S 180 9,6 C 10,3 C 1,8 km/h (1 Bft)
30.06.2013 01:55 10,3 C 96 % 1024,2 hPa 0,0 l/m 2,3 km/h (1 Bft) S-SO 157 9,7 C 10,3 C 3,2 km/h (1 Bft)
30.06.2013 02:00 10,3 C 96 % 1024,2 hPa 0,0 l/m 1,4 km/h (1 Bft) O-SO 112 9,7 C 10,3 C 1,9 km/h (1 Bft)
30.06.2013 02:05 10,3 C 96 % 1024,2 hPa 0,0 l/m 1,6 km/h (1 Bft) S-SO 157 9,7 C 10,3 C 2,7 km/h (1 Bft)
30.06.2013 02:10 10,3 C 96 % 1024,2 hPa 0,0 l/m 1,1 km/h (1 Bft) S-SO 157 9,7 C 10,3 C 3,2 km/h (1 Bft)
30.06.2013 02:15 10,3 C 96 % 1024,2 hPa 0,0 l/m 1,3 km/h (1 Bft) SO 135 9,7 C 10,3 C 0,0 km/h (0 Bft)
30.06.2013 02:20 10,3 C 96 % 1024,2 hPa 0,0 l/m 1,1 km/h (1 Bft) SO 135 9,7 C 10,3 C 1,6 km/h (1 Bft)
30.06.2013 02:25 10,3 C 96 % 1024,2 hPa 0,0 l/m 1,1 km/h (1 Bft) SO 135 9,7 C 10,3 C 2,9 km/h (1 Bft)
30.06.2013 02:30 10,2 C 96 % 1024,2 hPa 0,0 l/m 1,3 km/h (1 Bft) S-SO 157 9,6 C 10,3 C 0,0 km/h (0 Bft)
30.06.2013 02:35 10,2 C 96 % 1024,2 hPa 0,0 l/m 1,4 km/h (1 Bft) O-SO 112 9,6 C 10,3 C 3,2 km/h (1 Bft)
30.06.2013 02:40 10,3 C 96 % 1024,2 hPa 0,0 l/m 1,6 km/h (1 Bft) SO 135 9,7 C 10,3 C 0,0 km/h (0 Bft)
30.06.2013 02:45 10,3 C 96 % 1024,1 hPa 0,0 l/m 1,6 km/h (1 Bft) SO 135 9,7 C 10,4 C 6,1 km/h (2 Bft)
30.06.2013 02:50 10,3 C 96 % 1024,1 hPa 0,0 l/m 1,3 km/h (1 Bft) O-SO 112 9,7 C 10,5 C 3,9 km/h (1 Bft)
30.06.2013 02:55 10,3 C 96 % 1024,1 hPa 0,0 l/m 2,3 km/h (1 Bft) SO 135 9,7 C 10,5 C 4,5 km/h (1 Bft)
30.06.2013 03:00 10,3 C 96 % 1024,1 hPa 0,0 l/m 2,3 km/h (1 Bft) S 180 9,7 C 10,5 C 1,9 km/h (1 Bft)
30.06.2013 03:05 10,3 C 96 % 1024,1 hPa 0,0 l/m 1,3 km/h (1 Bft) O-SO 112 9,7 C 10,5 C 0,0 km/h (0 Bft)
30.06.2013 03:10 10,2 C 96 % 1024,1 hPa 0,0 l/m 0,3 km/h (0 Bft) SO 135 9,6 C 10,5 C 2,1 km/h (1 Bft)
30.06.2013 03:15 10,3 C 96 % 1024,1 hPa 0,0 l/m 0,8 km/h (0 Bft) O-NO 67 9,7 C 10,4 C 0,0 km/h (0 Bft)
30.06.2013 03:20 10,3 C 96 % 1024,1 hPa 0,0 l/m 1,1 km/h (1 Bft) SO 135 9,7 C 10,4 C 1,6 km/h (1 Bft)
30.06.2013 03:25 10,3 C 96 % 1024,1 hPa 0,0 l/m 1,4 km/h (1 Bft) NO 45 9,7 C 10,4 C 1,9 km/h (1 Bft)
30.06.2013 03:30 10,3 C 96 % 1024,1 hPa 0,0 l/m 1,6 km/h (1 Bft) NO 45 9,7 C 10,5 C 1,9 km/h (1 Bft)
30.06.2013 03:35 10,3 C 96 % 1024,1 hPa 0,0 l/m 1,4 km/h (1 Bft) O 90 9,7 C 10,5 C 2,7 km/h (1 Bft)
30.06.2013 03:40 10,3 C 96 % 1024,1 hPa 0,0 l/m 1,1 km/h (1 Bft) S 180 9,7 C 10,5 C 1,8 km/h (1 Bft)
30.06.2013 03:45 10,2 C 96 % 1024,1 hPa 0,0 l/m 1,3 km/h (1 Bft) O-SO 112 9,6 C 10,5 C 1,8 km/h (1 Bft)
30.06.2013 03:50 10,2 C 96 % 1024,1 hPa 0,0 l/m 0,5 km/h (0 Bft) S-SO 157 9,6 C 10,4 C 0,0 km/h (0 Bft)
30.06.2013 03:55 10,2 C 96 % 1024,1 hPa 0,0 l/m 0,6 km/h (0 Bft) SO 135 9,6 C 10,3 C 3,4 km/h (1 Bft)
30.06.2013 04:00 10,2 C 96 % 1024,1 hPa 0,0 l/m 0,8 km/h (0 Bft) O-NO 67 9,6 C 10,3 C 0,0 km/h (0 Bft)
30.06.2013 04:05 10,2 C 96 % 1024,1 hPa 0,0 l/m 0,3 km/h (0 Bft) O 90 9,6 C 10,3 C 0,0 km/h (0 Bft)
30.06.2013 04:10 10,2 C 96 % 1024,1 hPa 0,0 l/m 0,5 km/h (0 Bft) O 90 9,6 C 10,3 C 1,9 km/h (1 Bft)
30.06.2013 04:15 10,2 C 96 % 1024,1 hPa 0,0 l/m 0,5 km/h (0 Bft) SO 135 9,6 C 10,3 C 0,0 km/h (0 Bft)
30.06.2013 04:20 10,1 C 96 % 1024,1 hPa 0,0 l/m 0,2 km/h (0 Bft) S 180 9,5 C 10,2 C 0,0 km/h (0 Bft)
30.06.2013 04:25 10,1 C 96 % 1024,1 hPa 0,0 l/m 0,0 km/h (0 Bft) O-SO 112 9,5 C 10,1 C 0,0 km/h (0 Bft)
30.06.2013 04:30 10,1 C 96 % 1024,1 hPa 0,0 l/m 0,2 km/h (0 Bft) NO 45 9,5 C 10,1 C 2,1 km/h (1 Bft)
30.06.2013 04:35 10,1 C 96 % 1024,1 hPa 0,0 l/m 0,0 km/h (0 Bft) O-SO 112 9,5 C 10,1 C 0,0 km/h (0 Bft)
30.06.2013 04:40 10,1 C 96 % 1024,1 hPa 0,0 l/m 0,0 km/h (0 Bft) SO 135 9,5 C 10,1 C 0,0 km/h (0 Bft)
30.06.2013 04:45 10,1 C 96 % 1024,1 hPa 0,0 l/m 0,3 km/h (0 Bft) O-NO 67 9,5 C 10,1 C 1,9 km/h (1 Bft)
30.06.2013 04:50 10,1 C 96 % 1024,1 hPa 0,0 l/m 0,3 km/h (0 Bft) O-SO 112 9,5 C 10,1 C 0,0 km/h (0 Bft)
30.06.2013 04:55 10,1 C 96 % 1024,1 hPa 0,0 l/m 0,2 km/h (0 Bft) O-SO 112 9,5 C 10,2 C 0,0 km/h (0 Bft)
30.06.2013 05:00 10,2 C 96 % 1024,1 hPa 0,0 l/m 0,2 km/h (0 Bft) O-NO 67 9,6 C 10,2 C 1,6 km/h (1 Bft)
30.06.2013 05:05 10,1 C 96 % 1024,0 hPa 0,0 l/m 0,0 km/h (0 Bft) NO 45 9,5 C 10,2 C 0,0 km/h (0 Bft)
30.06.2013 05:10 10,1 C 96 % 1024,0 hPa 0,0 l/m 0,5 km/h (0 Bft) O 90 9,5 C 10,1 C 1,8 km/h (1 Bft)
30.06.2013 05:15 10,0 C 96 % 1024,0 hPa 0,0 l/m 1,1 km/h (1 Bft) O-NO 67 9,4 C 10,1 C 1,9 km/h (1 Bft)
30.06.2013 05:20 10,0 C 96 % 1024,0 hPa 0,0 l/m 0,8 km/h (0 Bft) NO 45 9,4 C 10,0 C 0,0 km/h (0 Bft)
30.06.2013 05:25 10,0 C 96 % 1024,0 hPa 0,0 l/m 0,3 km/h (0 Bft) O-SO 112 9,4 C 10,0 C 0,0 km/h (0 Bft)
30.06.2013 05:30 10,0 C 96 % 1024,0 hPa 0,0 l/m 0,2 km/h (0 Bft) O-SO 112 9,4 C 10,1 C 0,0 km/h (0 Bft)
30.06.2013 05:35 10,1 C 96 % 1024,0 hPa 0,0 l/m 0,0 km/h (0 Bft) O-SO 112 9,5 C 10,1 C 0,0 km/h (0 Bft)
30.06.2013 05:40 10,1 C 96 % 1024,0 hPa 0,0 l/m 0,0 km/h (0 Bft) O-SO 112 9,5 C 10,1 C 0,0 km/h (0 Bft)
30.06.2013 05:45 10,2 C 96 % 1024,3 hPa 0,0 l/m 0,0 km/h (0 Bft) O-NO 67 9,6 C 10,0 C 0,0 km/h (0 Bft)
30.06.2013 05:50 10,1 C 96 % 1024,3 hPa 0,0 l/m 0,0 km/h (0 Bft) NO 45 9,5 C 10,1 C 0,0 km/h (0 Bft)
30.06.2013 05:55 10,1 C 96 % 1024,3 hPa 0,0 l/m 0,5 km/h (0 Bft) O-NO 67 9,5 C 10,1 C 1,6 km/h (1 Bft)
30.06.2013 06:00 10,1 C 96 % 1024,3 hPa 0,0 l/m 0,8 km/h (0 Bft) S 180 9,5 C 10,1 C 0,0 km/h (0 Bft)
30.06.2013 06:05 10,2 C 96 % 1024,3 hPa 0,0 l/m 0,5 km/h (0 Bft) S 180 9,6 C 10,2 C 0,0 km/h (0 Bft)
30.06.2013 06:10 10,2 C 96 % 1024,3 hPa 0,0 l/m 0,0 km/h (0 Bft) S 180 9,6 C 10,3 C 0,0 km/h (0 Bft)
30.06.2013 06:15 10,3 C 96 % 1024,3 hPa 0,0 l/m 0,0 km/h (0 Bft) S-SO 157 9,7 C 10,3 C 0,0 km/h (0 Bft)
30.06.2013 06:20 10,4 C 96 % 1024,3 hPa 0,0 l/m 0,0 km/h (0 Bft) S 180 9,8 C 10,5 C 0,0 km/h (0 Bft)
30.06.2013 06:25 10,4 C 96 % 1024,4 hPa 0,0 l/m 0,2 km/h (0 Bft) O-SO 112 9,8 C 10,5 C 0,0 km/h (0 Bft)
30.06.2013 06:30 10,5 C 96 % 1024,4 hPa 0,0 l/m 0,0 km/h (0 Bft) S 180 9,9 C 10,7 C 0,0 km/h (0 Bft)
30.06.2013 06:35 10,6 C 96 % 1024,4 hPa 0,0 l/m 0,0 km/h (0 Bft) S 180 10,0 C 10,8 C 0,0 km/h (0 Bft)
30.06.2013 06:40 10,6 C 96 % 1024,4 hPa 0,0 l/m 0,0 km/h (0 Bft) O 90 10,0 C 10,9 C 0,0 km/h (0 Bft)
30.06.2013 06:45 10,6 C 96 % 1024,4 hPa 0,0 l/m 0,0 km/h (0 Bft) O 90 10,0 C 11,0 C 0,0 km/h (0 Bft)
30.06.2013 06:50 10,7 C 96 % 1024,4 hPa 0,0 l/m 0,0 km/h (0 Bft) O-NO 67 10,1 C 11,0 C 0,0 km/h (0 Bft)
30.06.2013 06:55 10,8 C 96 % 1024,4 hPa 0,0 l/m 0,0 km/h (0 Bft) SO 135 10,2 C 11,2 C 0,0 km/h (0 Bft)
30.06.2013 07:00 11,1 C 96 % 1024,4 hPa 0,0 l/m 0,0 km/h (0 Bft) S 180 10,5 C 11,5 C 0,0 km/h (0 Bft)
30.06.2013 07:05 11,2 C 96 % 1024,4 hPa 0,0 l/m 0,0 km/h (0 Bft) O 90 10,6 C 11,7 C 0,0 km/h (0 Bft)
30.06.2013 07:10 11,4 C 96 % 1024,4 hPa 0,0 l/m 0,3 km/h (0 Bft) S 180 10,8 C 11,9 C 2,6 km/h (1 Bft)
30.06.2013 07:15 11,3 C 96 % 1024,4 hPa 0,0 l/m 1,1 km/h (1 Bft) S 180 10,7 C 12,0 C 2,1 km/h (1 Bft)
30.06.2013 07:20 11,6 C 96 % 1024,4 hPa 0,0 l/m 1,1 km/h (1 Bft) S-SW 202 11,0 C 12,2 C 1,8 km/h (1 Bft)
30.06.2013 07:25 11,5 C 96 % 1024,7 hPa 0,0 l/m 1,3 km/h (1 Bft) S 180 10,9 C 12,3 C 2,6 km/h (1 Bft)
30.06.2013 07:30 11,6 C 96 % 1024,7 hPa 0,0 l/m 1,8 km/h (1 Bft) S 180 11,0 C 12,2 C 0,0 km/h (0 Bft)
30.06.2013 07:35 11,6 C 96 % 1024,7 hPa 0,0 l/m 1,9 km/h (1 Bft) S-SO 157 11,0 C 12,3 C 0,0 km/h (0 Bft)
30.06.2013 07:40 11,8 C 96 % 1024,7 hPa 0,0 l/m 1,6 km/h (1 Bft) S 180 11,2 C 12,4 C 2,7 km/h (1 Bft)
30.06.2013 07:45 12,1 C 96 % 1024,8 hPa 0,0 l/m 1,4 km/h (1 Bft) S-SO 157 11,5 C 12,6 C 0,0 km/h (0 Bft)
30.06.2013 07:50 12,7 C 96 % 1024,8 hPa 0,0 l/m 1,8 km/h (1 Bft) S 180 12,1 C 13,4 C 0,0 km/h (0 Bft)
30.06.2013 07:55 12,9 C 96 % 1024,8 hPa 0,0 l/m 1,8 km/h (1 Bft) S-SW 202 12,3 C 13,7 C 3,7 km/h (1 Bft)
30.06.2013 08:00 13,8 C 95 % 1024,8 hPa 0,0 l/m 2,1 km/h (1 Bft) S-SO 157 13,0 C 14,3 C 3,2 km/h (1 Bft)
30.06.2013 08:05 14,0 C 95 % 1024,8 hPa 0,0 l/m 2,3 km/h (1 Bft) S-SO 157 13,2 C 14,6 C 2,1 km/h (1 Bft)
30.06.2013 08:10 14,3 C 94 % 1024,8 hPa 0,0 l/m 2,7 km/h (1 Bft) S-SW 202 13,3 C 15,5 C 3,7 km/h (1 Bft)
30.06.2013 08:15 13,1 C 94 % 1024,8 hPa 0,0 l/m 3,2 km/h (1 Bft) W-SW 247 12,2 C 15,1 C 5,6 km/h (1 Bft)
30.06.2013 08:20 12,6 C 95 % 1024,8 hPa 0,0 l/m 3,7 km/h (1 Bft) SW 225 11,8 C 14,3 C 7,1 km/h (2 Bft)
30.06.2013 08:25 12,4 C 94 % 1024,9 hPa 0,0 l/m 3,9 km/h (1 Bft) SW 225 11,5 C 13,9 C 2,4 km/h (1 Bft)
30.06.2013 08:30 14,1 C 93 % 1024,9 hPa 0,0 l/m 3,5 km/h (1 Bft) W 270 13,0 C 13,8 C 2,1 km/h (1 Bft)
30.06.2013 08:35 15,9 C 92 % 1024,9 hPa 0,0 l/m 2,4 km/h (1 Bft) W-SW 247 14,6 C 15,3 C 2,4 km/h (1 Bft)
30.06.2013 08:40 15,0 C 90 % 1024,9 hPa 0,0 l/m 1,9 km/h (1 Bft) S 180 13,4 C 16,4 C 2,4 km/h (1 Bft)
30.06.2013 08:45 15,2 C 89 % 1025,2 hPa 0,0 l/m 2,4 km/h (1 Bft) W-SW 247 13,4 C 16,5 C 4,3 km/h (1 Bft)
30.06.2013 08:50 14,5 C 87 % 1025,2 hPa 0,0 l/m 3,4 km/h (1 Bft) W-SW 247 12,4 C 16,4 C 6,0 km/h (2 Bft)
30.06.2013 08:55 13,5 C 87 % 1025,2 hPa 0,0 l/m 3,9 km/h (1 Bft) W 270 11,4 C 15,8 C 2,4 km/h (1 Bft)
30.06.2013 09:00 13,2 C 88 % 1025,2 hPa 0,0 l/m 3,4 km/h (1 Bft) W-SW 247 11,3 C 15,0 C 2,6 km/h (1 Bft)
30.06.2013 09:05 12,7 C 88 % 1025,2 hPa 0,0 l/m 3,2 km/h (1 Bft) W-SW 247 10,8 C 14,7 C 5,0 km/h (1 Bft)
30.06.2013 09:10 13,6 C 88 % 1025,2 hPa 0,0 l/m 3,1 km/h (1 Bft) S 180 11,6 C 14,2 C 0,0 km/h (0 Bft)
30.06.2013 09:15 14,4 C 88 % 1025,2 hPa 0,0 l/m 3,5 km/h (1 Bft) W-SW 247 12,4 C 14,9 C 6,8 km/h (2 Bft)
30.06.2013 09:20 15,8 C 86 % 1025,2 hPa 0,0 l/m 3,9 km/h (1 Bft) SO 135 13,5 C 16,0 C 4,8 km/h (1 Bft)
30.06.2013 09:25 17,1 C 83 % 1025,2 hPa 0,0 l/m 4,2 km/h (1 Bft) W-SW 247 14,2 C 17,0 C 8,0 km/h (2 Bft)
30.06.2013 09:30 16,0 C 82 % 1025,2 hPa 0,0 l/m 4,2 km/h (1 Bft) S 180 12,9 C 17,8 C 4,5 km/h (1 Bft)
30.06.2013 09:35 15,3 C 84 % 1025,2 hPa 0,0 l/m 4,5 km/h (1 Bft) S-SW 202 12,6 C 17,2 C 5,0 km/h (1 Bft)
30.06.2013 09:40 16,5 C 82 % 1025,2 hPa 0,0 l/m 4,5 km/h (1 Bft) S 180 13,4 C 16,8 C 7,9 km/h (2 Bft)
30.06.2013 09:45 17,2 C 80 % 1025,2 hPa 0,0 l/m 5,6 km/h (1 Bft) S-SW 202 13,7 C 17,3 C 6,3 km/h (2 Bft)
30.06.2013 09:50 18,0 C 78 % 1025,2 hPa 0,0 l/m 6,4 km/h (2 Bft) W-SW 247 14,1 C 18,3 C 5,1 km/h (1 Bft)
30.06.2013 09:55 15,9 C 79 % 1025,2 hPa 0,0 l/m 6,1 km/h (2 Bft) S-SW 202 12,3 C 18,6 C 5,5 km/h (1 Bft)
30.06.2013 10:00 14,9 C 82 % 1025,2 hPa 0,0 l/m 6,4 km/h (2 Bft) S-SO 157 11,9 C 17,0 C 14,2 km/h (3 Bft)
30.06.2013 10:05 14,9 C 83 % 1025,6 hPa 0,0 l/m 6,4 km/h (2 Bft) S 180 12,0 C 16,7 C 4,5 km/h (1 Bft)
30.06.2013 10:10 15,7 C 84 % 1025,6 hPa 0,0 l/m 4,8 km/h (1 Bft) S 180 13,0 C 16,7 C 4,3 km/h (1 Bft)
30.06.2013 10:15 16,1 C 82 % 1025,6 hPa 0,0 l/m 4,0 km/h (1 Bft) S 180 13,0 C 17,1 C 6,4 km/h (2 Bft)
30.06.2013 10:20 16,0 C 81 % 1025,6 hPa 0,0 l/m 4,2 km/h (1 Bft) S-SW 202 12,7 C 17,4 C 5,3 km/h (1 Bft)
30.06.2013 10:25 16,5 C 80 % 1025,8 hPa 0,0 l/m 4,7 km/h (1 Bft) S-SO 157 13,0 C 17,5 C 7,2 km/h (2 Bft)
30.06.2013 10:30 15,5 C 80 % 1025,8 hPa 0,0 l/m 5,3 km/h (1 Bft) W-SW 247 12,1 C 17,6 C 9,3 km/h (2 Bft)
30.06.2013 10:35 15,7 C 80 % 1025,8 hPa 0,0 l/m 6,0 km/h (2 Bft) S-SW 202 12,3 C 17,2 C 7,9 km/h (2 Bft)
30.06.2013 10:40 14,9 C 81 % 1025,8 hPa 0,0 l/m 6,1 km/h (2 Bft) S 180 11,7 C 16,8 C 6,9 km/h (2 Bft)
30.06.2013 10:45 15,2 C 84 % 1025,6 hPa 0,0 l/m 5,1 km/h (1 Bft) S 180 12,5 C 16,4 C 5,0 km/h (1 Bft)
30.06.2013 10:50 15,5 C 84 % 1025,6 hPa 0,0 l/m 4,2 km/h (1 Bft) S 180 12,8 C 16,6 C 5,6 km/h (1 Bft)
30.06.2013 10:55 16,0 C 82 % 1025,6 hPa 0,0 l/m 3,7 km/h (1 Bft) S 180 12,9 C 16,9 C 4,0 km/h (1 Bft)
30.06.2013 11:00 16,8 C 80 % 1025,6 hPa 0,0 l/m 3,7 km/h (1 Bft) O-SO 112 13,3 C 17,6 C 7,2 km/h (2 Bft)
30.06.2013 11:05 17,1 C 75 % 1025,6 hPa 0,0 l/m 4,8 km/h (1 Bft) S 180 12,6 C 18,1 C 7,7 km/h (2 Bft)
30.06.2013 11:10 15,6 C 77 % 1025,6 hPa 0,0 l/m 6,1 km/h (2 Bft) S 180 11,6 C 17,6 C 8,5 km/h (2 Bft)
30.06.2013 11:15 16,5 C 76 % 1025,6 hPa 0,0 l/m 5,8 km/h (2 Bft) O 90 12,3 C 17,3 C 4,5 km/h (1 Bft)
30.06.2013 11:20 18,0 C 74 % 1025,6 hPa 0,0 l/m 4,3 km/h (1 Bft) W-SW 247 13,3 C 18,3 C 4,0 km/h (1 Bft)
30.06.2013 11:25 18,8 C 77 % 1025,6 hPa 0,0 l/m 3,2 km/h (1 Bft) S 180 14,7 C 19,4 C 4,8 km/h (1 Bft)
30.06.2013 11:30 16,9 C 72 % 1025,6 hPa 0,0 l/m 3,4 km/h (1 Bft) S 180 11,8 C 19,5 C 5,0 km/h (1 Bft)
30.06.2013 11:35 16,6 C 70 % 1025,6 hPa 0,0 l/m 4,8 km/h (1 Bft) W 270 11,1 C 18,7 C 6,6 km/h (2 Bft)
30.06.2013 11:40 18,4 C 67 % 1025,6 hPa 0,0 l/m 5,1 km/h (1 Bft) S 180 12,2 C 19,7 C 9,0 km/h (2 Bft)
30.06.2013 11:45 17,8 C 67 % 1025,8 hPa 0,0 l/m 5,0 km/h (1 Bft) S-SO 157 11,6 C 19,8 C 11,3 km/h (2 Bft)
30.06.2013 11:50 16,0 C 70 % 1025,8 hPa 0,0 l/m 6,1 km/h (2 Bft) S-SW 202 10,5 C 18,2 C 8,9 km/h (2 Bft)
30.06.2013 11:55 15,1 C 72 % 1025,8 hPa 0,0 l/m 6,3 km/h (2 Bft) W-SW 247 10,1 C 17,2 C 7,4 km/h (2 Bft)
30.06.2013 12:00 14,5 C 74 % 1025,8 hPa 0,0 l/m 6,0 km/h (2 Bft) S-SO 157 9,9 C 16,0 C 7,6 km/h (2 Bft)
30.06.2013 12:05 14,6 C 76 % 1025,4 hPa 0,0 l/m 5,6 km/h (1 Bft) S 180 10,4 C 15,6 C 5,8 km/h (2 Bft)
30.06.2013 12:10 14,9 C 75 % 1025,4 hPa 0,0 l/m 4,7 km/h (1 Bft) SW 225 10,5 C 15,7 C 6,0 km/h (2 Bft)
30.06.2013 12:15 15,9 C 76 % 1025,4 hPa 0,0 l/m 4,2 km/h (1 Bft) SW 225 11,7 C 16,3 C 6,0 km/h (2 Bft)
30.06.2013 12:20 15,9 C 68 % 1025,4 hPa 0,0 l/m 5,1 km/h (1 Bft) W-SW 247 10,0 C 16,9 C 6,4 km/h (2 Bft)
30.06.2013 12:25 16,2 C 68 % 1025,8 hPa 0,0 l/m 5,1 km/h (1 Bft) S-SW 202 10,3 C 17,1 C 7,1 km/h (2 Bft)
30.06.2013 12:30 15,2 C 66 % 1025,8 hPa 0,0 l/m 6,0 km/h (2 Bft) S 180 8,9 C 17,0 C 8,7 km/h (2 Bft)
30.06.2013 12:35 15,1 C 69 % 1025,8 hPa 0,0 l/m 6,9 km/h (2 Bft) W-SW 247 9,5 C 16,2 C 6,4 km/h (2 Bft)
30.06.2013 12:40 15,8 C 68 % 1025,8 hPa 0,0 l/m 6,0 km/h (2 Bft) W-SW 247 9,9 C 16,2 C 6,3 km/h (2 Bft)
30.06.2013 12:45 16,9 C 62 % 1025,9 hPa 0,0 l/m 5,5 km/h (1 Bft) S 180 9,6 C 16,8 C 6,4 km/h (2 Bft)
30.06.2013 12:50 17,0 C 60 % 1025,9 hPa 0,0 l/m 5,0 km/h (1 Bft) S-SO 157 9,2 C 18,6 C 14,2 km/h (3 Bft)
30.06.2013 12:55 16,9 C 60 % 1025,9 hPa 0,0 l/m 5,3 km/h (1 Bft) W-SW 247 9,1 C 18,4 C 5,3 km/h (1 Bft)
30.06.2013 13:00 16,2 C 59 % 1025,9 hPa 0,0 l/m 6,6 km/h (2 Bft) W-NW 292 8,2 C 18,3 C 5,5 km/h (1 Bft)
30.06.2013 13:05 15,8 C 62 % 1025,7 hPa 0,0 l/m 6,0 km/h (2 Bft) S-SW 202 8,5 C 17,6 C 7,9 km/h (2 Bft)
30.06.2013 13:10 16,0 C 61 % 1025,7 hPa 0,0 l/m 5,8 km/h (2 Bft) SO 135 8,5 C 17,4 C 7,7 km/h (2 Bft)
30.06.2013 13:15 16,3 C 61 % 1025,7 hPa 0,0 l/m 5,5 km/h (1 Bft) S 180 8,8 C 17,2 C 5,8 km/h (2 Bft)
30.06.2013 13:20 15,7 C 59 % 1025,7 hPa 0,0 l/m 5,6 km/h (1 Bft) S 180 7,7 C 17,2 C 4,0 km/h (1 Bft)
30.06.2013 13:25 15,5 C 62 % 1025,4 hPa 0,0 l/m 5,5 km/h (1 Bft) W-SW 247 8,3 C 16,9 C 5,3 km/h (1 Bft)
30.06.2013 13:30 17,0 C 60 % 1025,4 hPa 0,0 l/m 5,1 km/h (1 Bft) S-SO 157 9,2 C 17,0 C 15,8 km/h (3 Bft)
30.06.2013 13:35 17,9 C 59 % 1025,4 hPa 0,0 l/m 6,0 km/h (2 Bft) W-SW 247 9,8 C 17,8 C 7,2 km/h (2 Bft)
30.06.2013 13:40 17,7 C 58 % 1025,4 hPa 0,0 l/m 6,9 km/h (2 Bft) S 180 9,3 C 18,2 C 10,6 km/h (2 Bft)
30.06.2013 13:45 17,1 C 58 % 1025,7 hPa 0,0 l/m 6,9 km/h (2 Bft) S-SO 157 8,8 C 17,9 C 9,2 km/h (2 Bft)
30.06.2013 13:50 16,5 C 59 % 1025,7 hPa 0,0 l/m 6,8 km/h (2 Bft) S-SW 202 8,5 C 17,3 C 8,9 km/h (2 Bft)
30.06.2013 13:55 16,3 C 59 % 1025,7 hPa 0,0 l/m 5,5 km/h (1 Bft) S 180 8,3 C 17,3 C 4,0 km/h (1 Bft)
30.06.2013 14:00 16,1 C 59 % 1025,7 hPa 0,0 l/m 4,8 km/h (1 Bft) W 270 8,1 C 17,2 C 4,3 km/h (1 Bft)
30.06.2013 14:05 16,3 C 60 % 1025,6 hPa 0,0 l/m 4,5 km/h (1 Bft) W-NW 292 8,5 C 17,1 C 8,7 km/h (2 Bft)
30.06.2013 14:10 16,5 C 60 % 1025,6 hPa 0,0 l/m 4,0 km/h (1 Bft) S-SW 202 8,7 C 17,2 C 3,1 km/h (1 Bft)
30.06.2013 14:15 16,3 C 60 % 1025,6 hPa 0,0 l/m 5,0 km/h (1 Bft) S-SW 202 8,5 C 17,1 C 4,7 km/h (1 Bft)
30.06.2013 14:20 16,6 C 59 % 1025,6 hPa 0,0 l/m 4,8 km/h (1 Bft) S-SW 202 8,6 C 17,2 C 6,8 km/h (2 Bft)
30.06.2013 14:25 16,5 C 59 % 1025,4 hPa 0,0 l/m 4,2 km/h (1 Bft) W-SW 247 8,5 C 17,2 C 6,0 km/h (2 Bft)
30.06.2013 14:30 16,7 C 60 % 1025,4 hPa 0,0 l/m 4,2 km/h (1 Bft) S 180 8,9 C 17,5 C 6,6 km/h (2 Bft)
30.06.2013 14:35 17,3 C 58 % 1025,4 hPa 0,0 l/m 4,8 km/h (1 Bft) S 180 9,0 C 17,7 C 8,7 km/h (2 Bft)
30.06.2013 14:40 18,2 C 57 % 1025,4 hPa 0,0 l/m 5,3 km/h (1 Bft) O-SO 112 9,5 C 18,7 C 5,0 km/h (1 Bft)
30.06.2013 14:45 19,2 C 53 % 1025,4 hPa 0,0 l/m 5,3 km/h (1 Bft) S 180 9,4 C 19,3 C 7,9 km/h (2 Bft)
30.06.2013 14:50 18,8 C 56 % 1025,4 hPa 0,0 l/m 5,8 km/h (2 Bft) W 270 9,8 C 19,5 C 7,7 km/h (2 Bft)
30.06.2013 14:55 18,8 C 54 % 1025,4 hPa 0,0 l/m 5,8 km/h (2 Bft) S-SO 157 9,3 C 20,1 C 5,5 km/h (1 Bft)
30.06.2013 15:00 18,2 C 55 % 1025,4 hPa 0,0 l/m 5,8 km/h (2 Bft) S-SW 202 9,0 C 19,9 C 5,0 km/h (1 Bft)
30.06.2013 15:05 18,7 C 54 % 1025,5 hPa 0,0 l/m 6,0 km/h (2 Bft) S 180 9,2 C 19,5 C 6,6 km/h (2 Bft)
30.06.2013 15:10 20,5 C 49 % 1025,5 hPa 0,0 l/m 5,3 km/h (1 Bft) W-SW 247 9,4 C 21,0 C 4,2 km/h (1 Bft)
30.06.2013 15:15 19,3 C 51 % 1025,5 hPa 0,0 l/m 4,8 km/h (1 Bft) W-SW 247 8,9 C 21,4 C 6,9 km/h (2 Bft)
30.06.2013 15:20 20,0 C 50 % 1025,5 hPa 0,0 l/m 5,5 km/h (1 Bft) S 180 9,3 C 21,0 C 7,4 km/h (2 Bft)
30.06.2013 15:25 18,8 C 51 % 1025,2 hPa 0,0 l/m 5,6 km/h (1 Bft) S 180 8,4 C 20,9 C 9,0 km/h (2 Bft)
30.06.2013 15:30 17,6 C 54 % 1025,2 hPa 0,0 l/m 6,0 km/h (2 Bft) W-SW 247 8,2 C 19,4 C 6,1 km/h (2 Bft)
30.06.2013 15:35 17,7 C 54 % 1025,2 hPa 0,0 l/m 5,3 km/h (1 Bft) S 180 8,3 C 18,9 C 3,7 km/h (1 Bft)
30.06.2013 15:40 18,5 C 55 % 1025,2 hPa 0,0 l/m 3,5 km/h (1 Bft) S-SW 202 9,3 C 19,2 C 4,8 km/h (1 Bft)
30.06.2013 15:45 17,8 C 54 % 1025,5 hPa 0,0 l/m 3,9 km/h (1 Bft) W-SW 247 8,4 C 19,3 C 10,0 km/h (2 Bft)
30.06.2013 15:50 17,7 C 56 % 1025,5 hPa 0,0 l/m 4,7 km/h (1 Bft) O-SO 112 8,8 C 18,6 C 4,2 km/h (1 Bft)
30.06.2013 15:55 18,4 C 55 % 1025,5 hPa 0,0 l/m 4,7 km/h (1 Bft) W 270 9,2 C 19,0 C 5,3 km/h (1 Bft)
30.06.2013 16:00 18,2 C 54 % 1025,5 hPa 0,0 l/m 3,9 km/h (1 Bft) W-SW 247 8,7 C 19,4 C 8,2 km/h (2 Bft)
30.06.2013 16:05 18,5 C 55 % 1025,4 hPa 0,0 l/m 3,9 km/h (1 Bft) W-SW 247 9,3 C 19,2 C 5,3 km/h (1 Bft)
30.06.2013 16:10 18,1 C 55 % 1025,4 hPa 0,0 l/m 4,0 km/h (1 Bft) W 270 8,9 C 19,8 C 4,8 km/h (1 Bft)
30.06.2013 16:15 18,0 C 55 % 1025,4 hPa 0,0 l/m 4,0 km/h (1 Bft) S 180 8,8 C 19,6 C 8,0 km/h (2 Bft)
30.06.2013 16:20 17,6 C 55 % 1025,4 hPa 0,0 l/m 3,9 km/h (1 Bft) S-SW 202 8,5 C 19,6 C 4,7 km/h (1 Bft)
30.06.2013 16:25 18,6 C 55 % 1025,2 hPa 0,0 l/m 3,7 km/h (1 Bft) S-SW 202 9,4 C 19,7 C 7,2 km/h (2 Bft)
30.06.2013 16:30 18,3 C 51 % 1025,2 hPa 0,0 l/m 4,8 km/h (1 Bft) W-SW 247 8,0 C 20,7 C 10,8 km/h (2 Bft)
30.06.2013 16:35 17,7 C 53 % 1025,2 hPa 0,0 l/m 6,1 km/h (2 Bft) S-SW 202 8,0 C 19,9 C 3,4 km/h (1 Bft)
30.06.2013 16:40 18,2 C 53 % 1025,2 hPa 0,0 l/m 4,8 km/h (1 Bft) S-SW 202 8,5 C 19,2 C 6,4 km/h (2 Bft)
30.06.2013 16:45 18,9 C 50 % 1025,2 hPa 0,0 l/m 5,0 km/h (1 Bft) S-SW 202 8,2 C 20,2 C 8,9 km/h (2 Bft)
30.06.2013 16:50 17,4 C 53 % 1025,2 hPa 0,0 l/m 6,0 km/h (2 Bft) SW 225 7,7 C 19,9 C 5,5 km/h (1 Bft)
30.06.2013 16:55 17,1 C 57 % 1025,2 hPa 0,0 l/m 5,1 km/h (1 Bft) S-SO 157 8,5 C 19,0 C 11,7 km/h (2 Bft)
30.06.2013 17:00 18,3 C 56 % 1025,2 hPa 0,0 l/m 5,3 km/h (1 Bft) S-SO 157 9,4 C 19,8 C 8,9 km/h (2 Bft)
30.06.2013 17:05 18,2 C 54 % 1024,8 hPa 0,0 l/m 5,6 km/h (1 Bft) W-SW 247 8,7 C 20,6 C 5,8 km/h (2 Bft)
30.06.2013 17:10 17,2 C 54 % 1024,8 hPa 0,0 l/m 5,3 km/h (1 Bft) S 180 7,8 C 20,3 C 4,8 km/h (1 Bft)
30.06.2013 17:15 17,0 C 56 % 1024,8 hPa 0,0 l/m 4,8 km/h (1 Bft) S-SW 202 8,2 C 19,6 C 6,0 km/h (2 Bft)
30.06.2013 17:20 17,1 C 57 % 1024,8 hPa 0,0 l/m 4,3 km/h (1 Bft) S-SO 157 8,5 C 18,9 C 7,9 km/h (2 Bft)
30.06.2013 17:25 17,9 C 55 % 1024,7 hPa 0,0 l/m 4,7 km/h (1 Bft) S 180 8,7 C 19,8 C 8,7 km/h (2 Bft)
30.06.2013 17:30 18,0 C 55 % 1024,7 hPa 0,0 l/m 5,6 km/h (1 Bft) W-SW 247 8,8 C 21,5 C 8,5 km/h (2 Bft)
30.06.2013 17:35 17,3 C 53 % 1024,7 hPa 0,0 l/m 5,6 km/h (1 Bft) S-SW 202 7,6 C 20,9 C 3,5 km/h (1 Bft)
30.06.2013 17:40 16,7 C 56 % 1024,7 hPa 0,0 l/m 4,8 km/h (1 Bft) S 180 7,9 C 19,3 C 4,0 km/h (1 Bft)
30.06.2013 17:45 17,0 C 57 % 1024,2 hPa 0,0 l/m 4,0 km/h (1 Bft) S-SO 157 8,4 C 18,8 C 4,0 km/h (1 Bft)
30.06.2013 17:50 16,9 C 58 % 1024,2 hPa 0,0 l/m 3,4 km/h (1 Bft) S-SO 157 8,6 C 19,0 C 2,7 km/h (1 Bft)
30.06.2013 17:55 16,7 C 58 % 1024,2 hPa 0,0 l/m 2,6 km/h (1 Bft) O-SO 112 8,4 C 18,8 C 0,0 km/h (0 Bft)
30.06.2013 18:00 16,4 C 60 % 1024,2 hPa 0,0 l/m 1,4 km/h (1 Bft) O-SO 112 8,6 C 18,7 C 0,0 km/h (0 Bft)
30.06.2013 18:05 16,2 C 61 % 1024,1 hPa 0,0 l/m 1,0 km/h (0 Bft) O-SO 112 8,7 C 18,5 C 2,4 km/h (1 Bft)
30.06.2013 18:10 17,6 C 60 % 1024,1 hPa 0,0 l/m 1,3 km/h (1 Bft) S 180 9,7 C 21,3 C 9,2 km/h (2 Bft)
30.06.2013 18:15 17,3 C 57 % 1024,1 hPa 0,0 l/m 3,5 km/h (1 Bft) S-SO 157 8,7 C 21,2 C 8,4 km/h (2 Bft)
30.06.2013 18:20 16,8 C 58 % 1024,1 hPa 0,0 l/m 6,0 km/h (2 Bft) S 180 8,5 C 19,3 C 5,8 km/h (2 Bft)
30.06.2013 18:25 17,3 C 59 % 1023,9 hPa 0,0 l/m 4,7 km/h (1 Bft) S 180 9,2 C 19,3 C 3,7 km/h (1 Bft)
30.06.2013 18:30 17,1 C 59 % 1023,9 hPa 0,0 l/m 2,1 km/h (1 Bft) S 180 9,0 C 19,3 C 3,2 km/h (1 Bft)
30.06.2013 18:35 17,1 C 58 % 1023,9 hPa 0,0 l/m 1,8 km/h (1 Bft) S 180 8,8 C 19,0 C 3,7 km/h (1 Bft)
30.06.2013 18:40 17,4 C 58 % 1023,9 hPa 0,0 l/m 3,9 km/h (1 Bft) S-SO 157 9,1 C 18,9 C 6,3 km/h (2 Bft)
30.06.2013 18:45 17,3 C 59 % 1024,1 hPa 0,0 l/m 3,9 km/h (1 Bft) S 180 9,2 C 18,9 C 2,7 km/h (1 Bft)
30.06.2013 18:50 16,5 C 58 % 1024,1 hPa 0,0 l/m 3,4 km/h (1 Bft) SW 225 8,2 C 18,2 C 4,5 km/h (1 Bft)
30.06.2013 18:55 16,7 C 59 % 1024,1 hPa 0,0 l/m 3,1 km/h (1 Bft) W-SW 247 8,6 C 18,0 C 4,2 km/h (1 Bft)
30.06.2013 19:00 17,2 C 59 % 1024,1 hPa 0,0 l/m 2,6 km/h (1 Bft) W-SW 247 9,1 C 18,8 C 0,0 km/h (0 Bft)
30.06.2013 19:05 17,6 C 58 % 1023,8 hPa 0,0 l/m 2,4 km/h (1 Bft) S 180 9,2 C 19,8 C 2,6 km/h (1 Bft)
30.06.2013 19:10 17,4 C 55 % 1023,8 hPa 0,0 l/m 1,8 km/h (1 Bft) W-SW 247 8,3 C 21,3 C 2,3 km/h (1 Bft)
30.06.2013 19:15 17,5 C 54 % 1023,8 hPa 0,0 l/m 2,1 km/h (1 Bft) W-SW 247 8,1 C 22,1 C 6,4 km/h (2 Bft)
30.06.2013 19:20 17,5 C 55 % 1023,8 hPa 0,0 l/m 2,9 km/h (1 Bft) NW 315 8,4 C 22,2 C 1,8 km/h (1 Bft)
30.06.2013 19:25 17,6 C 56 % 1023,5 hPa 0,0 l/m 3,5 km/h (1 Bft) S 180 8,7 C 22,3 C 3,5 km/h (1 Bft)
30.06.2013 19:30 17,8 C 56 % 1023,5 hPa 0,0 l/m 3,2 km/h (1 Bft) W-SW 247 8,9 C 22,2 C 6,4 km/h (2 Bft)
30.06.2013 19:35 17,7 C 54 % 1023,5 hPa 0,0 l/m 3,2 km/h (1 Bft) SW 225 8,3 C 22,2 C 5,0 km/h (1 Bft)
30.06.2013 19:40 17,4 C 55 % 1023,5 hPa 0,0 l/m 2,3 km/h (1 Bft) W-NW 292 8,3 C 22,1 C 0,0 km/h (0 Bft)
30.06.2013 19:45 17,5 C 55 % 1023,7 hPa 0,0 l/m 1,6 km/h (1 Bft) W-SW 247 8,4 C 22,5 C 3,7 km/h (1 Bft)
30.06.2013 19:50 17,3 C 56 % 1023,7 hPa 0,0 l/m 2,3 km/h (1 Bft) W-SW 247 8,4 C 21,9 C 4,5 km/h (1 Bft)
30.06.2013 19:55 17,3 C 56 % 1023,7 hPa 0,0 l/m 3,4 km/h (1 Bft) W-NW 292 8,4 C 21,5 C 4,5 km/h (1 Bft)
30.06.2013 20:00 16,9 C 57 % 1023,7 hPa 0,0 l/m 3,1 km/h (1 Bft) S-SW 202 8,3 C 20,8 C 1,8 km/h (1 Bft)
30.06.2013 20:05 16,5 C 57 % 1023,7 hPa 0,0 l/m 1,8 km/h (1 Bft) SW 225 8,0 C 20,2 C 1,8 km/h (1 Bft)
30.06.2013 20:10 15,9 C 59 % 1023,7 hPa 0,0 l/m 0,5 km/h (0 Bft) W-SW 247 7,9 C 18,6 C 1,6 km/h (1 Bft)
30.06.2013 20:15 15,5 C 59 % 1023,7 hPa 0,0 l/m 0,5 km/h (0 Bft) NW 315 7,5 C 17,9 C 0,0 km/h (0 Bft)
30.06.2013 20:20 14,9 C 63 % 1023,7 hPa 0,0 l/m 0,5 km/h (0 Bft) NW 315 7,9 C 16,9 C 1,9 km/h (1 Bft)
30.06.2013 20:25 14,7 C 66 % 1023,5 hPa 0,0 l/m 0,8 km/h (0 Bft) O-SO 112 8,4 C 16,4 C 1,8 km/h (1 Bft)
30.06.2013 20:30 14,5 C 69 % 1023,5 hPa 0,0 l/m 1,8 km/h (1 Bft) NO 45 8,9 C 15,8 C 3,5 km/h (1 Bft)
30.06.2013 20:35 14,5 C 70 % 1023,5 hPa 0,0 l/m 2,3 km/h (1 Bft) W-NW 292 9,1 C 16,2 C 2,7 km/h (1 Bft)
30.06.2013 20:40 14,1 C 71 % 1023,5 hPa 0,0 l/m 2,7 km/h (1 Bft) O 90 8,9 C 15,8 C 2,6 km/h (1 Bft)
30.06.2013 20:45 13,8 C 72 % 1023,7 hPa 0,0 l/m 2,3 km/h (1 Bft) NO 45 8,8 C 15,1 C 2,1 km/h (1 Bft)
30.06.2013 20:50 13,5 C 73 % 1023,7 hPa 0,0 l/m 1,4 km/h (1 Bft) O-NO 67 8,8 C 14,4 C 2,1 km/h (1 Bft)
30.06.2013 20:55 13,4 C 74 % 1023,7 hPa 0,0 l/m 1,6 km/h (1 Bft) O-NO 67 8,9 C 14,0 C 2,7 km/h (1 Bft)
30.06.2013 21:00 13,4 C 75 % 1023,7 hPa 0,0 l/m 2,6 km/h (1 Bft) O 90 9,1 C 13,8 C 2,1 km/h (1 Bft)
30.06.2013 21:05 13,4 C 76 % 1023,8 hPa 0,0 l/m 2,6 km/h (1 Bft) O-NO 67 9,3 C 13,7 C 2,7 km/h (1 Bft)
30.06.2013 21:10 13,3 C 76 % 1023,8 hPa 0,0 l/m 2,6 km/h (1 Bft) O-NO 67 9,2 C 13,6 C 3,1 km/h (1 Bft)
30.06.2013 21:15 13,1 C 77 % 1023,8 hPa 0,0 l/m 2,7 km/h (1 Bft) O-NO 67 9,2 C 13,5 C 1,9 km/h (1 Bft)
30.06.2013 21:20 12,9 C 78 % 1023,8 hPa 0,0 l/m 1,1 km/h (1 Bft) O-NO 67 9,2 C 13,3 C 0,0 km/h (0 Bft)
30.06.2013 21:25 12,8 C 78 % 1023,8 hPa 0,0 l/m 0,3 km/h (0 Bft) O 90 9,1 C 13,1 C 2,4 km/h (1 Bft)
30.06.2013 21:30 12,7 C 79 % 1023,8 hPa 0,0 l/m 0,5 km/h (0 Bft) O 90 9,2 C 12,9 C 0,0 km/h (0 Bft)
30.06.2013 21:35 12,5 C 79 % 1023,8 hPa 0,0 l/m 0,5 km/h (0 Bft) O-NO 67 9,0 C 12,8 C 1,9 km/h (1 Bft)
30.06.2013 21:40 12,5 C 81 % 1023,8 hPa 0,0 l/m 1,1 km/h (1 Bft) O 90 9,3 C 12,5 C 2,7 km/h (1 Bft)
30.06.2013 21:45 12,3 C 80 % 1023,9 hPa 0,0 l/m 2,3 km/h (1 Bft) NO 45 8,9 C 12,4 C 4,3 km/h (1 Bft)
30.06.2013 21:50 12,3 C 80 % 1023,9 hPa 0,0 l/m 3,5 km/h (1 Bft) O 90 8,9 C 12,3 C 3,4 km/h (1 Bft)
30.06.2013 21:55 12,1 C 81 % 1023,9 hPa 0,0 l/m 3,4 km/h (1 Bft) NO 45 8,9 C 12,3 C 1,9 km/h (1 Bft)
30.06.2013 22:00 12,0 C 81 % 1023,9 hPa 0,0 l/m 1,4 km/h (1 Bft) N-NO 22 8,8 C 12,1 C 0,0 km/h (0 Bft)
30.06.2013 22:05 11,8 C 82 % 1024,1 hPa 0,0 l/m 0,5 km/h (0 Bft) N-NO 22 8,8 C 12,0 C 1,6 km/h (1 Bft)
30.06.2013 22:10 11,9 C 82 % 1024,1 hPa 0,0 l/m 1,4 km/h (1 Bft) O 90 8,9 C 11,9 C 4,3 km/h (1 Bft)
30.06.2013 22:15 11,9 C 83 % 1024,1 hPa 0,0 l/m 2,1 km/h (1 Bft) NO 45 9,1 C 11,9 C 2,3 km/h (1 Bft)
30.06.2013 22:20 11,9 C 83 % 1024,1 hPa 0,0 l/m 1,6 km/h (1 Bft) O 90 9,1 C 11,8 C 2,4 km/h (1 Bft)
30.06.2013 22:25 11,8 C 83 % 1024,1 hPa 0,0 l/m 1,0 km/h (0 Bft) W-SW 247 9,0 C 11,8 C 0,0 km/h (0 Bft)
30.06.2013 22:30 11,3 C 83 % 1024,1 hPa 0,0 l/m 0,8 km/h (0 Bft) NO 45 8,5 C 11,3 C 0,0 km/h (0 Bft)
30.06.2013 22:35 11,6 C 83 % 1024,1 hPa 0,0 l/m 1,1 km/h (1 Bft) O-SO 112 8,8 C 11,2 C 0,0 km/h (0 Bft)
30.06.2013 22:40 10,8 C 82 % 1024,1 hPa 0,0 l/m 1,8 km/h (1 Bft) O 90 7,9 C 10,9 C 2,9 km/h (1 Bft)
30.06.2013 22:45 10,8 C 84 % 1024,1 hPa 0,0 l/m 1,9 km/h (1 Bft) NO 45 8,2 C 10,6 C 4,0 km/h (1 Bft)
30.06.2013 22:50 10,8 C 85 % 1024,1 hPa 0,0 l/m 3,4 km/h (1 Bft) O 90 8,4 C 10,5 C 4,5 km/h (1 Bft)
30.06.2013 22:55 10,7 C 85 % 1024,1 hPa 0,0 l/m 4,7 km/h (1 Bft) NO 45 8,3 C 10,4 C 6,4 km/h (2 Bft)
30.06.2013 23:00 10,5 C 85 % 1024,1 hPa 0,0 l/m 5,0 km/h (1 Bft) O 90 8,1 C 10,2 C 5,0 km/h (1 Bft)
30.06.2013 23:05 10,5 C 85 % 1024,1 hPa 0,0 l/m 4,3 km/h (1 Bft) O 90 8,1 C 10,3 C 4,0 km/h (1 Bft)
30.06.2013 23:10 10,2 C 86 % 1024,1 hPa 0,0 l/m 4,3 km/h (1 Bft) O-NO 67 8,0 C 10,2 C 5,1 km/h (1 Bft)
30.06.2013 23:15 10,0 C 86 % 1024,1 hPa 0,0 l/m 4,3 km/h (1 Bft) O 90 7,8 C 10,2 C 3,5 km/h (1 Bft)
30.06.2013 23:20 10,1 C 86 % 1024,1 hPa 0,0 l/m 3,9 km/h (1 Bft) O-NO 67 7,9 C 10,0 C 4,2 km/h (1 Bft)
30.06.2013 23:25 10,0 C 87 % 1024,0 hPa 0,0 l/m 3,5 km/h (1 Bft) O 90 7,9 C 9,8 C 3,5 km/h (1 Bft)
30.06.2013 23:30 9,8 C 87 % 1024,0 hPa 0,0 l/m 3,4 km/h (1 Bft) O-SO 112 7,7 C 9,5 C 3,2 km/h (1 Bft)
30.06.2013 23:35 9,6 C 88 % 1024,0 hPa 0,0 l/m 3,2 km/h (1 Bft) O 90 7,7 C 9,4 C 3,5 km/h (1 Bft)
30.06.2013 23:40 9,3 C 88 % 1024,0 hPa 0,0 l/m 3,1 km/h (1 Bft) O 90 7,4 C 9,2 C 3,7 km/h (1 Bft)
30.06.2013 23:45 9,3 C 88 % 1023,9 hPa 0,0 l/m 2,9 km/h (1 Bft) SO 135 7,4 C 9,2 C 2,7 km/h (1 Bft)
30.06.2013 23:50 9,1 C 88 % 1023,9 hPa 0,0 l/m 2,4 km/h (1 Bft) O 90 7,2 C 9,1 C 1,6 km/h (1 Bft)
30.06.2013 23:55 9,0 C 88 % 1023,9 hPa 0,0 l/m 1,4 km/h (1 Bft) O-SO 112 7,1 C 9,0 C 0,0 km/h (0 Bft)
_ Min-Zeit 23:55 15:10 20:40 - 07:05 - - 23:55 23:55 23:55
Minimum _ 9,0 C 49 % 1023,5 hPa - 0,0 km/h (0 Bft) - - 7,1 C 9,0 C 0,0 km/h (0 Bft)
_ Max-Zeit 15:10 07:55 13:00 00:40 13:45 - - 11:25 19:45 13:30
Maximum _ 20,5 C 96 % 1025,9 hPa 0,7 l/m 6,9 km/h
S-SO (2 Bft)
- - 14,7 C 22,5 C 15,8 km/h
S-SO (3 Bft)
Durchschnitt _ 13,9 C 78 % 1024,6 hPa #2,7 l/m 2,9 km/h (1 Bft) S - 9,7 C 14,8 C 3,8 km/h (1 Bft)